Location: C.E.K. Mees Observatory
(42.7003°N, 77.4088°W)
Time: 19:26:53
(UTC-04:00)

Vanguard 1 Rocket - Visible Passes

Search period start: 14 August 2018 00:00
Search period end: 24 August 2018 00:00
Orbit: 650 x 4226 km, 34.3° (Epoch: 13 August)

Date Brightness Start Highest point End Pass type
(mag) Time Alt. Az. Time Alt. Az. Time Alt. Az.
14 Aug 10.4 01:12:08 34° SE 01:12:51 34° SE 01:32:33 10° E visible
14 Aug 10.3 03:29:23 32° SW 03:41:09 62° SSE 04:06:44 10° E visible
15 Aug 10.9 00:04:35 20° ESE 00:04:35 20° ESE 00:14:40 10° E visible
15 Aug 10.1 02:21:49 44° S 02:27:23 52° SSE 02:51:26 10° E visible
15 Aug 10.6 04:39:04 15° WSW 04:58:11 69° S 05:23:48 10° E visible
16 Aug 10.2 01:14:15 39° SE 01:14:42 39° SE 01:35:20 10° E visible
16 Aug 10.3 03:31:31 32° SW 03:43:25 65° SSE 04:09:16 10° E visible
17 Aug 10.7 00:06:42 24° ESE 00:06:42 24° ESE 00:18:13 10° E visible
17 Aug 9.9 02:23:56 46° SSW 02:29:31 56° SSE 02:53:57 10° E visible
17 Aug 10.6 04:41:12 14° WSW 05:00:33 69° S 05:26:19 10° ESE visible
18 Aug 10.0 01:16:24 44° SSE 01:16:42 44° SE 01:37:57 10° E visible
18 Aug 10.3 03:33:39 30° WSW 03:45:47 67° S 04:11:45 10° E visible
19 Aug 10.5 00:08:52 28° ESE 00:08:52 28° ESE 00:21:18 10° E visible
19 Aug 9.8 02:26:07 48° SSW 02:31:48 60° SSE 02:56:24 10° E visible
19 Aug 10.6 04:43:22 12° W 05:02:56 68° S 05:28:44 10° ESE visible
19 Aug 11.0 23:01:22 12° E 23:01:22 12° E 23:03:18 10° E visible
20 Aug 9.8 01:18:37 49° SSE 01:18:51 49° SSE 01:40:28 10° E visible
20 Aug 10.3 03:35:52 28° WSW 03:48:13 68° S 04:14:12 10° E visible
21 Aug 10.3 00:11:08 32° ESE 00:11:08 32° ESE 00:24:07 10° E visible
21 Aug 9.8 02:28:24 48° SW 02:34:13 63° SSE 02:58:49 10° E visible
21 Aug 10.5 04:45:42 10° W 05:05:18 65° S 05:31:02 10° ESE visible
21 Aug 10.9 23:03:42 15° E 23:03:42 15° E 23:07:05 10° E visible
22 Aug 9.7 01:20:58 54° SSE 01:21:09 54° SSE 01:42:55 10° E visible
22 Aug 10.2 03:38:13 26° WSW 03:50:41 68° S 04:16:33 10° ESE visible
23 Aug 10.2 00:13:34 35° ESE 00:13:34 35° ESE 00:26:45 10° E visible
23 Aug 9.8 02:30:50 48° SW 02:36:42 65° S 03:01:12 10° E visible
23 Aug 10.5 04:48:37 10° W 05:07:39 62° SSW 05:33:10 10° ESE visible
23 Aug 10.8 23:06:14 16° E 23:06:14 16° E 23:10:19 10° E visible
